AirNav   Pilot Hours Calculator
 
 1157 users online  

KBST Belfast Municipal Airport
Belfast, Maine, USA

GOING TO BELFAST?


FAA INFORMATION EFFECTIVE 04 NOVEMBER 2021

Location

FAA Identifier: BST
Lat/Long: 44-24-33.8000N 069-00-42.6000W
44-24.563333N 069-00.710000W
44.4093889,-69.0118333
(estimated)
Elevation: 197.6 ft. / 60.2 m (surveyed)
Variation: 18W (2000)
From city: 1 mile SW of BELFAST, ME
Time zone: UTC -4 (UTC -5 during Standard Time)
Zip code: 04915

Airport Operations

Airport use: Open to the public
Activation date: 03/1943
Control tower: no
ARTCC: BOSTON CENTER
FSS: BANGOR FLIGHT SERVICE STATION
NOTAMs facility: BGR (NOTAM-D service available)
Attendance: IREG
Wind indicator: lighted
Segmented circle: yes
Lights: ACTVT REIL RWY 15 & 33; MIRL RWY 15/33 - CTAF.
Beacon: white-green (lighted land airport)
Operates sunset to sunrise.

Airport Communications

CTAF/UNICOM: 122.975
WX AWOS-AV: 122.975 (207-930-7071)
BANGOR APPROACH: 118.925
BANGOR DEPARTURE: 118.925

Nearby radio navigation aids

VOR radial/distance  VOR name  Freq  Var
BGRr212/26.6BANGOR VORTAC114.8019W
AUGr099/34.1AUGUSTA VOR/DME114.9518W

 
NDB name  Hdg/Dist  Freq  Var  ID
SPRUCEHEAD029/21.935618WSUH ... ..- ....
BURNHAM157/22.834818WBUP -... ..- .--.

Airport Services

Parking: hangars and tiedowns
Airframe service: MINOR
Powerplant service: MINOR
Bottled oxygen: NONE
Bulk oxygen: NONE

Runway Information

Runway 15/33

Dimensions: 4000 x 100 ft. / 1219 x 30 m
Surface: asphalt, in good condition
Weight bearing capacity: 
Single wheel: 30.0
Runway edge lights: medium intensity
Runway edge markings: NRS & CNTRLN MARKINGS FADED.
RUNWAY 15  RUNWAY 33
Latitude: 44-24.789857N44-24.337253N
Longitude: 069-01.043273W069-00.376365W
Elevation: 197.5 ft.158.5 ft.
Traffic pattern: leftleft
Runway heading: 151 magnetic, 133 true331 magnetic, 313 true
Markings: nonprecision, in poor conditionnonprecision, in poor condition
Runway end identifier lights: yesyes
Touchdown point: yes, no lightsyes, no lights

Airport Ownership and Management from official FAA records

Ownership: Publicly-owned
Owner: CITY OF BELFAST
CITY HALL131 CHURCH ST
BELFAST, ME 04915
Phone 207-338-3370X600
Manager: KENN ORTMANN
22 WRIGHT BROTHERS DR.
BELFAST, ME 04915
Phone 603-970-1947

Airport Operational Statistics

Aircraft based on the field: 16
Single engine airplanes: 16
    
Aircraft operations: avg 61/week *
62% local general aviation
22% transient general aviation
16% air taxi
* for 12-month period ending 31 December 2019

Additional Remarks

A58-33 8-10 FT BRUSH 0-150 FT FM THR, 75 FT FM RWY CNTRLN.
A52-33 80 FT TALL OBSTN LGTS ALG BOTH SIDES OF PRI SFC AND TREELINE.
FMI: WWW.CITYOFBELFAST.ORG/AIRPORT.
FOR CD CTC BANGOR APCH AT 207-561-2521.
80 FT TALL OBSTN LGTS ALG BOTH SIDES OF PRI SFC AND TREE LINE.
GND TRNSPN AVBL.
AWOS AVBL VIA CTAF - 2 CLICKS OR CALL (207) 930-7071, ALSO WWW.DIGIWX-BST.COM.
FREE UNSECURED WIFI AVBL.
DEER & BIRDS ON OR INVOF ARPT.
SFC COND RPRTD MON-FRI 1400-2200Z DEC-MAR.

Instrument Procedures

NOTE: All procedures below are presented as PDF files. If you need a reader for these files, you should download the free Adobe Reader.

NOT FOR NAVIGATION. Please procure official charts for flight.
FAA instrument procedures published for use from 04 November 2021 at 0901Z to 02 December 2021 at 0900z.

 
IAPs - Instrument Approach Procedures
RNAV (GPS) RWY 15 **CHANGED**   download (253KB)
RNAV (GPS) RWY 33   download (287KB)
NOTE: Special Take-Off Minimums/Departure Procedures apply   download (178KB)

Other nearby airports with instrument procedures:

KRKD - Knox County Regional Airport (21 nm S)
KBGR - Bangor International Airport (25 nm N)
2B7 - Pittsfield Municipal Airport (27 nm NW)
KBHB - Hancock County/Bar Harbor Airport (28 nm E)
KWVL - Waterville Robert LaFleur Airport (29 nm W)
 
Loc | Ops | Rwys | IFR | FBO | Links
Com | Nav | Svcs | Stats | Notes
Area around KBST (Belfast Municipal Airport)
 
Road maps at: MapQuest Bing Google
 
Aerial photo
WARNING: Photo may not be current or correct
Aerial photo of KBST (Belfast Municipal Airport)
Photo by Kyle Warren Photography
Photo taken 20-Feb-2017
looking northwest.

Do you have a better or more recent aerial photo of Belfast Municipal Airport that you would like to share? If so, please send us your photo.

 
Sectional chart

 
Airport distance calculator
Flying to Belfast Municipal Airport? Find the distance to fly.

From to KBST

Sunrise and sunset
Times for 30-Nov-2021
 Local
(UTC-5)
 Zulu
(UTC)
Morning civil twilight06:1911:19
Sunrise06:5211:52
Sunset15:5820:58
Evening civil twilight16:3021:30

Current date and time
Zulu (UTC)  01-Dec-2021 01:20:57
Local (UTC-5)  30-Nov-2021 20:20:57
 
METAR
KRKD 
21nm S 
010056Z AUTO 00000KT 10SM FEW050 M01/M06 A2989 RMK AO2 SLP122 T10061061 FZRANO
KBGR 
25nm N 
010053Z 00000KT 10SM SCT050 M05/M08 A2988 RMK AO2 SLP121 T10501078
KBHB 
28nm E 
010056Z AUTO 32003KT 10SM OVC055 M03/M07 A2989 RMK AO2 SLP124 T10281067 FZRANO
KWVL 
29nm W 
010056Z AUTO 00000KT 10SM BKN050 M02/M07 A2985 RMK AO2 SLP141 T10221072 FZRANO
KAUG 
34nm W 
010053Z AUTO 00000KT 10SM FEW049 SCT120 00/M08 A2988 RMK AO2 SLP122 T00001078
KIWI 
40nm SW 
010053Z AUTO 00000KT 10SM BKN120 M01/M04 A2990 RMK AO2 SLP127 T10111044
TAF
KRKD 
21nm S 
301720Z 3018/0118 26008KT P6SM SCT250 FM302100 26005KT P6SM OVC250 FM010300 27003KT P6SM OVC100 FM011200 26005KT P6SM OVC050 FM011500 26012KT P6SM BKN250
KBGR 
25nm N 
301720Z 3018/0118 27008KT P6SM FEW100 FM302200 24004KT P6SM SCT090 FM010100 00000KT P6SM BKN090 FM011300 19003KT P6SM BKN045
NOTAMs
Click for the latest NOTAMs
NOTAMs are issued by the DoD/FAA and will open in a separate window not controlled by AirNav.

 

 
 

Would you like to see your business listed on this page?

 If your business provides an interesting product or service to pilots, flight crews, aircraft, or users of the Belfast Municipal Airport, you should consider listing it here.  To start the listing process, click on the button below
 
Add a business
 

Other Pages about Belfast Municipal Airport

www.cityofbelfast.org/...
 
Update a link
 
Copyright © AirNav, LLC. All rights reserved. Privacy Policy  Contact